Weather in Akhtala

Armenia     41°08′42″N   44°46′24″E
temp.,
°C
wind,
m/s
gust,
m/s
humid.,
%
clouds,
%
prec.,
mm/h
press.,
hPa
HPBL,
m
16 may, sun
sun1601:00+15sw3267100 0.0 101530
04:00+13sw226798 0.0 101624
07:00+14wsw227110 0.0 101640
10:00+20nne21483 0.0 1015911
13:00+22ne33426 0.0 10141400
16:00+23ene334221 0.3 10121300
19:00+19ssw116939 0.6 101234
22:00+15sw3378100 0.8 101442
17 may, mon
mon1701:00+14sw33739 0.0 101440
04:00+13sw327171 0.0 101330
07:00+14sw226936 0.0 101340
10:00+21nne21452 0.0 1012768
13:00+24ne3240100 0.0 10101048
16:00+24ene224386 0.0 10081066
19:00+17wsw2284100 0.8 101049
22:00+14wsw22915 0.8 101221
18 may, tue
tue1801:00+13sw33890 0.0 101042
04:00+13sw3386100 0.0 101043
07:00+14sw227920 0.0 101049
10:00+21nne3254100 0.0 1010838
13:00+23ne2250100 0.3 10091174
16:00+22nnw565798 1.2 10101066
19:00+15ssw228979 6.1 101241
22:00+12sw32850 6.1 101530
19 may, wed
wed1901:00+12sw32830 0.0 101527
04:00+11sw33810 0.0 101538
07:00+13sw33671 0.0 101656
10:00+21nne21390 0.0 1015716
13:00+24ne32330 0.0 10141287
16:00+25ene32360 0.0 10131266
19:00+22ene116132 0.0 101321
22:00+17sw327199 0.0 101528
20 may, thu
thu2001:00+15sw32760 0.0 101628
04:00+14sw22795 0.0 101618
07:00+16sw11750 0.0 101750
10:00+21ne21570 0.0 1016713
13:00+24ne32524 0.0 10141120
16:00+25ene32511 0.0 10131185
19:00+23ne12670 0.0 1013124
22:00+17sw328236 0.2 101429